Regional Weather Roundup
Issued by NWS

Home | Current Version | Previous Version | Graphics & Text | Print | Product List | Glossary On
Versions: 1 2 3 4 5 6 7 8 9 10 11 12 13 14 15 16 17 18 19 20 21 22 23 24 25 26 27 28 29 30 31 32 33 34 35 36 37 38 39 40 41 42 43 44 45 46 47 48 49 50
000
ASUS45 KABQ 192010
RWRNM
NEW MEXICO REGIONAL WEATHER ROUNDUP
NATIONAL WEATHER SERVICE ALBUQUERQUE NM
100 PM MST MON FEB 19 2018

NOTE: "FAIR" MEANS FEW OR NO CLOUDS BELOW 12,000 FEET AGL WITH NO
       SIGNIFICANT WEATHER OR OBSTRUCTIONS TO VISION.

      THIS PRODUCT IS RELEASED AS TWO VERSIONS.  ONE VERSION NEAR
      THE TOP OF THE HOUR CONTAINING PRELIMINARY DATA FROM ALBUQUERQUE
      AND OTHER STATIONS.  A FINAL VERSION WITH ADDITIONAL DATA IS
      ISSUED ABOUT 10 MINUTES AFTER THE HOUR.

NMZ501-503-504-510>518-192100-
NORTHWEST PLATEAU/NORTHCENTRAL MOUNTAINS

CITY           SKY/WX    TMP DP  RH WIND       PRES   REMARKS
FARMINGTON     PTSUNNY   50  30  46 SW36G45   29.46F
LOS ALAMOS     LGT RAIN  47  26  43 S26G36    29.59F
SANTA FE       FAIR      56  28  34 SW24G39   29.60F
TAOS           CLOUDY    49  27  42 SW30G40   29.58F
ANGEL FIRE     PTSUNNY   42  24  49 SW21G33   29.60F

$$
NMZ402-403-502-505>509-192100-
WESTCENTRAL MOUNTAINS/SOUTHWEST MOUNTAINS

CITY           SKY/WX    TMP DP  RH WIND       PRES   REMARKS
GALLUP         LGT RAIN  47  33  58 SW36G46   29.55F
GRANTS         PTSUNNY   55  21  26 S26G55    29.60F
SILVER CITY    CLOUDY    52  36  54 SW18G26   29.79F

$$
NMZ407-409-411-412-192100-
SOUTHERN DESERTS

CITY           SKY/WX    TMP DP  RH WIND       PRES   REMARKS
DEMING         FAIR      63  37  38 SW26G40   29.77F
LAS CRUCES     FAIR      63  35  34 SW28G36   29.79F
ALAMOGORDO     PTSUNNY   63  32  31 SW23G32   29.78F
T OR C         FAIR      61  36  39 SW31G40   29.68F

$$
NMZ519>523-192100-
CENTRAL VALLEYS/CENTRAL HIGHLANDS

CITY           SKY/WX    TMP DP  RH WIND       PRES   REMARKS
ALBUQUERQUE    PTSUNNY   55  38  52 S32G38    29.61F
DOUBLE EAGLE   PTSUNNY   55  30  38 S23G33    29.62F
MORIARTY ARPT  PTSUNNY   55  39  54 SW28G35   29.63F
CLINES CORNERS PTSUNNY   50  34  54 SW37G49   29.66F
BELEN          CLOUDY    57  38  49 S31G37    29.62F
SOCORRO        PTSUNNY   61  37  41 S20G28    29.64F

$$
NMZ524>526-539-540-192100-
SOUTHCENTRAL MOUNTAINS

CITY           SKY/WX    TMP DP  RH WIND       PRES   REMARKS
RUIDOSO        FAIR      45  37  76 SW44G58   29.70F

$$
NMZ527>531-192100-
NORTHEAST HIGHLANDS/NORTHEAST PLAINS

CITY           SKY/WX    TMP DP  RH WIND       PRES   REMARKS
LAS VEGAS      PTSUNNY   51  29  42 SW29G38   29.61F
RATON          PTSUNNY   57  17  21 SW18G37   29.49F
CLAYTON        CLOUDY    47  29  49 E18       29.59F

$$
NMZ532>537-192100-
EASTCENTRAL PLAINS

CITY           SKY/WX    TMP DP  RH WIND       PRES   REMARKS
SANTA ROSA     MOCLDY    59  38  45 SW25G33   29.62F
TUCUMCARI      FAIR      65  38  36 SW29G38   29.60F
CANNON AFB     FAIR      63  37  38 SW30G39   29.69F
CLOVIS AIRPORT NOT AVBL

$$
NMZ028-029-538-192100-
SOUTHEAST PLAINS

CITY           SKY/WX    TMP DP  RH WIND       PRES   REMARKS
ROSWELL        FAIR      68  37  32 SW31G43   29.67F
ARTESIA        FAIR      70  36  28 SW26G43   29.70F
CARLSBAD       FAIR      70  37  29 S32G40    29.70F
HOBBS          SUNNY     70  32  24 S23G35    29.74F


$$




USA.gov is the U.S. government's official web portal to all federal, state and local government web resources and services.